Location: Dürabuch
(48.2640°N, 11.2185°E)
Time: 19:33:47
(UTC+00:00)

Cosmos 2322 Rocket - Pass Details

Date: 23 May 2024
Orbit: 831 x 850 km, 71.0° (Epoch: 23 June)

Event Time Altitude Azimuth Distance (km) Brightness Sun altitude
Rises 02:35:59 0° 323° (NW) 3,402 5.4 -7.4°
Reaches altitude 10° 02:38:49 10° 310° (NW) 2,466 4.6 -7.0°
Maximum altitude 02:43:18 25° 258° (WSW) 1,648 3.3 -6.5°
Drops below altitude 10° 02:47:47 10° 205° (SSW) 2,462 4.1 -5.9°
Sets 02:50:37 0° 192° (SSW) 3,395 4.9 -5.6°
